When you browse on this site, cookies collect data to enhance your experience and personalize the content and advertising you see.
Visit our Privacy Policy to learn more. By continuing to use the site, you agree to this use of cookies and data.
  • In Spain
  • List of Countries
  • For 7 days
  • Water Temperature
  • Weather Map
  • Weather Widgets
  • user-avatar
    Login

    Hourly Weather Kingston upon Thames

    Today, 17 September, Tuesday

    Time Temperature Precipitation Wind Pressure Humidity
    00:00 +15°C° 0 mm 2 mps 765 mmHg 80%
    01:00 +14°C° 0 mm 2 mps 765 mmHg 80%
    02:00 +14°C° 0 mm 2 mps 765 mmHg 81%
    03:00 +13°C° 0 mm 2 mps 765 mmHg 81%
    04:00 +12°C° 0 mm 2 mps 765 mmHg 83%
    05:00 +12°C° 0 mm 2 mps 766 mmHg 84%
    06:00 +10°C° 0 mm 2 mps 766 mmHg 86%
    07:00 +12°C° 0 mm 2 mps 766 mmHg 79%
    08:00 +13°C° 0 mm 3 mps 766 mmHg 73%
    09:00 +14°C° 0 mm 3 mps 767 mmHg 67%
    10:00 +16°C° 0 mm 3 mps 767 mmHg 62%
    11:00 +17°C° 0 mm 3 mps 767 mmHg 57%
    12:00 +18°C° 0 mm 4 mps 767 mmHg 52%
    13:00 +19°C° 0 mm 4 mps 767 mmHg 51%
    14:00 +19°C° 0 mm 4 mps 767 mmHg 50%
    15:00 +19°C° 0 mm 4 mps 767 mmHg 49%
    16:00 +18°C° 0 mm 4 mps 767 mmHg 52%
    17:00 +16°C° 0 mm 3 mps 767 mmHg 56%
    18:00 +14°C° 0 mm 3 mps 767 mmHg 60%
    19:00 +13°C° 0 mm 3 mps 768 mmHg 62%
    20:00 +12°C° 0 mm 3 mps 768 mmHg 65%
    21:00 +11°C° 0 mm 3 mps 769 mmHg 68%
    22:00 +11°C° 0 mm 3 mps 769 mmHg 69%
    23:00 +10°C° 0 mm 3 mps 769 mmHg 70%

    Tomorrow, 18 September, Wednesday

    Time Temperature Precipitation Wind Pressure Humidity
    00:00 +10°C° 0 mm 3 mps 769 mmHg 71%
    01:00 +9°C° 0 mm 2 mps 769 mmHg 72%
    02:00 +9°C° 0 mm 2 mps 769 mmHg 74%
    03:00 +9°C° 0 mm 2 mps 769 mmHg 75%
    04:00 +8°C° 0 mm 2 mps 770 mmHg 77%
    05:00 +8°C° 0 mm 2 mps 770 mmHg 78%
    06:00 +8°C° 0 mm 2 mps 770 mmHg 79%
    07:00 +10°C° 0 mm 2 mps 770 mmHg 72%
    08:00 +12°C° 0 mm 2 mps 771 mmHg 66%
    09:00 +13°C° 0 mm 3 mps 771 mmHg 59%
    10:00 +14°C° 0 mm 3 mps 771 mmHg 55%
    11:00 +16°C° 0 mm 3 mps 770 mmHg 50%
    12:00 +17°C° 0 mm 3 mps 770 mmHg 45%
    13:00 +18°C° 0 mm 3 mps 770 mmHg 45%
    14:00 +18°C° 0 mm 3 mps 770 mmHg 45%
    15:00 +19°C° 0 mm 3 mps 770 mmHg 44%
    16:00 +17°C° 0 mm 3 mps 770 mmHg 49%
    17:00 +16°C° 0 mm 2 mps 770 mmHg 54%
    18:00 +15°C° 0 mm 2 mps 770 mmHg 59%
    19:00 +14°C° 0 mm 2 mps 770 mmHg 61%
    20:00 +14°C° 0 mm 1 mps 770 mmHg 63%
    21:00 +13°C° 0 mm 1 mps 771 mmHg 66%
    22:00 +12°C° 0 mm 1 mps 771 mmHg 68%
    23:00 +11°C° 0 mm 0 mps 771 mmHg 71%

    Day after tomorrow, 19 September, Thursday

    Time Temperature Precipitation Wind Pressure Humidity
    00:00 +11°C° 0 mm 0 mps 771 mmHg 73%
    01:00 +10°C° 0 mm 0 mps 771 mmHg 75%
    02:00 +10°C° 0 mm 0 mps 771 mmHg 76%
    03:00 +10°C° 0 mm 0 mps 771 mmHg 77%
    04:00 +10°C° 0 mm 0 mps 771 mmHg 77%
    05:00 +10°C° 0 mm 0 mps 771 mmHg 77%
    06:00 +10°C° 0 mm 0 mps 771 mmHg 77%
    07:00 +13°C° 0 mm 1 mps 771 mmHg 72%
    08:00 +14°C° 0 mm 1 mps 771 mmHg 66%
    09:00 +16°C° 0 mm 1 mps 772 mmHg 61%
    10:00 +18°C° 0 mm 1 mps 772 mmHg 58%
    11:00 +19°C° 0 mm 1 mps 771 mmHg 54%
    12:00 +21°C° 0 mm 1 mps 771 mmHg 51%
    13:00 +21°C° 0 mm 1 mps 771 mmHg 50%
    14:00 +20°C° 0 mm 2 mps 771 mmHg 50%
    15:00 +21°C° 0 mm 2 mps 770 mmHg 49%
    16:00 +19°C° 0 mm 2 mps 770 mmHg 54%
    17:00 +18°C° 0 mm 2 mps 770 mmHg 59%
    18:00 +17°C° 0 mm 2 mps 770 mmHg 64%
    19:00 +16°C° 0 mm 2 mps 770 mmHg 68%
    20:00 +15°C° 0 mm 2 mps 771 mmHg 71%
    21:00 +14°C° 0 mm 2 mps 771 mmHg 75%
    22:00 +14°C° 0 mm 2 mps 771 mmHg 77%
    23:00 +13°C° 0 mm 2 mps 770 mmHg 80%

    20 September, Friday

    Time Temperature Precipitation Wind Pressure Humidity
    00:00 +13°C° 0 mm 2 mps 770 mmHg 82%
    01:00 +13°C° 0 mm 1 mps 770 mmHg 84%
    02:00 +13°C° 0 mm 1 mps 770 mmHg 85%
    03:00 +12°C° 0 mm 1 mps 770 mmHg 87%
    04:00 +12°C° 0 mm 1 mps 770 mmHg 87%
    05:00 +12°C° 0 mm 1 mps 769 mmHg 88%
    06:00 +12°C° 0 mm 2 mps 769 mmHg 88%
    07:00 +13°C° 0 mm 2 mps 769 mmHg 79%
    08:00 +14°C° 0 mm 3 mps 769 mmHg 70%
    09:00 +17°C° 0 mm 4 mps 769 mmHg 61%
    10:00 +18°C° 0 mm 4 mps 769 mmHg 55%
    11:00 +19°C° 0 mm 4 mps 768 mmHg 49%
    12:00 +20°C° 0 mm 5 mps 768 mmHg 43%
    13:00 +20°C° 0 mm 5 mps 767 mmHg 42%
    14:00 +20°C° 0 mm 5 mps 766 mmHg 40%
    15:00 +21°C° 0 mm 5 mps 765 mmHg 39%
    16:00 +19°C° 0 mm 5 mps 765 mmHg 44%
    17:00 +17°C° 0 mm 5 mps 765 mmHg 48%
    18:00 +15°C° 0 mm 4 mps 764 mmHg 53%
    19:00 +15°C° 0 mm 4 mps 764 mmHg 55%
    20:00 +15°C° 0 mm 4 mps 764 mmHg 57%
    21:00 +14°C° 0 mm 4 mps 764 mmHg 59%
    22:00 +14°C° 0 mm 4 mps 763 mmHg 60%
    23:00 +14°C° 0 mm 4 mps 763 mmHg 61%

    21 September, Saturday

    Time Temperature Precipitation Wind Pressure Humidity
    00:00 +14°C° 0 mm 4 mps 762 mmHg 61%
    01:00 +13°C° 0 mm 4 mps 762 mmHg 62%
    02:00 +13°C° 0 mm 4 mps 761 mmHg 63%
    03:00 +13°C° 0 mm 4 mps 761 mmHg 63%
    04:00 +12°C° 0 mm 4 mps 760 mmHg 66%
    05:00 +12°C° 0 mm 4 mps 760 mmHg 69%
    06:00 +11°C° 0 mm 4 mps 759 mmHg 72%
    07:00 +13°C° 0 mm 4 mps 759 mmHg 67%
    08:00 +14°C° 0 mm 4 mps 759 mmHg 63%
    09:00 +16°C° 0 mm 5 mps 758 mmHg 59%
    10:00 +19°C° 0 mm 5 mps 758 mmHg 55%
    11:00 +20°C° 0 mm 5 mps 757 mmHg 52%
    12:00 +22°C° 0 mm 5 mps 757 mmHg 49%
    13:00 +22°C° 0 mm 5 mps 756 mmHg 50%
    14:00 +23°C° 0 mm 5 mps 756 mmHg 52%
    15:00 +23°C° 0 mm 5 mps 755 mmHg 53%
    16:00 +22°C° 0.1 mm 4 mps 755 mmHg 57%
    17:00 +21°C° 0.1 mm 4 mps 754 mmHg 61%
    18:00 +20°C° 0.1 mm 3 mps 754 mmHg 65%
    19:00 +20°C° 0.4 mm 4 mps 754 mmHg 71%
    20:00 +20°C° 0.4 mm 4 mps 754 mmHg 77%
    21:00 +20°C° 0.4 mm 5 mps 754 mmHg 83%
    22:00 +19°C° 0.1 mm 5 mps 754 mmHg 84%
    23:00 +18°C° 0.1 mm 4 mps 754 mmHg 85%

    22 September, Sunday

    Time Temperature Precipitation Wind Pressure Humidity
    00:00 +18°C° 0.1 mm 4 mps 754 mmHg 85%
    01:00 +17°C° 0 mm 4 mps 754 mmHg 88%
    02:00 +17°C° 0 mm 4 mps 754 mmHg 90%
    03:00 +17°C° 0 mm 3 mps 754 mmHg 92%
    04:00 +17°C° 0 mm 4 mps 754 mmHg 92%
    05:00 +17°C° 0 mm 4 mps 754 mmHg 93%
    06:00 +17°C° 0 mm 4 mps 754 mmHg 93%
    07:00 +17°C° 0.2 mm 5 mps 754 mmHg 90%
    08:00 +17°C° 0.2 mm 5 mps 755 mmHg 87%
    09:00 +19°C° 0.2 mm 6 mps 755 mmHg 84%
    10:00 +19°C° 0.4 mm 6 mps 755 mmHg 79%
    11:00 +20°C° 0.4 mm 6 mps 755 mmHg 74%
    12:00 +20°C° 0.4 mm 5 mps 755 mmHg 69%
    13:00 +21°C° 0.1 mm 5 mps 756 mmHg 65%
    14:00 +21°C° 0.1 mm 5 mps 756 mmHg 61%
    15:00 +21°C° 0.1 mm 5 mps 756 mmHg 58%
    16:00 +20°C° 0 mm 5 mps 757 mmHg 59%
    17:00 +18°C° 0 mm 4 mps 757 mmHg 61%
    18:00 +17°C° 0 mm 4 mps 758 mmHg 63%
    19:00 +15°C° 0 mm 4 mps 758 mmHg 67%
    20:00 +15°C° 0 mm 4 mps 759 mmHg 72%
    21:00 +14°C° 0 mm 4 mps 760 mmHg 76%
    22:00 +13°C° 0 mm 3 mps 760 mmHg 79%
    23:00 +13°C° 0 mm 3 mps 760 mmHg 82%
    Show more